Location: Marysville Observatory
(48.1092°N, 122.1645°W)
Time: 14:38:25
(UTC-07:00)

ISS - Visible Passes

Search period start: 24 July 2014 00:00
Search period end: 03 August 2014 00:00
Orbit: 411 x 419 km, 51.6° (Epoch: 24 July)

Date Brightness Start Highest point End Pass type
(mag) Time Alt. Az. Time Alt. Az. Time Alt. Az.
24 Jul -3.3 03:07:14 56° SSW 03:07:46 71° SSE 03:11:08 10° ENE visible
24 Jul -2.3 04:41:22 10° W 04:44:38 46° N 04:47:55 10° ENE visible
25 Jul -2.1 02:20:06 33° E 02:20:06 33° E 02:22:19 10° ENE visible
25 Jul -2.6 03:52:58 13° W 03:55:47 53° NNW 03:59:06 10° ENE visible
26 Jul -0.6 01:32:59 13° E 01:32:59 13° E 01:33:26 10° E visible
26 Jul -3.0 03:05:51 37° W 03:07:00 66° NNW 03:10:21 10° ENE visible
26 Jul -2.1 04:40:47 10° WNW 04:44:02 44° N 04:47:17 10° ENE visible
27 Jul -2.9 02:18:45 62° ENE 02:18:45 62° ENE 02:21:38 10° ENE visible
27 Jul -2.1 03:51:58 10° WNW 03:55:13 44° N 03:58:28 10° ENE visible
28 Jul -1.2 01:31:41 21° ENE 01:31:41 21° ENE 01:32:56 10° ENE visible
28 Jul -2.3 03:04:32 22° WNW 03:06:26 47° N 03:09:43 10° ENE visible
28 Jul -2.4 04:40:12 10° WNW 04:43:31 53° NNE 04:46:50 10° E visible
29 Jul -2.7 02:17:30 53° NNW 02:17:42 55° NNW 02:21:02 10° ENE visible
29 Jul -2.2 03:51:30 10° WNW 03:54:47 46° N 03:58:03 10° E visible
30 Jul -1.6 01:30:30 30° ENE 01:30:30 30° ENE 01:32:23 10° ENE visible
30 Jul -2.1 03:03:22 14° WNW 03:06:03 43° N 03:09:18 10° ENE visible
30 Jul -3.2 04:39:39 10° WNW 04:43:02 82° NNE 04:46:25 10° ESE visible
31 Jul -0.4 00:43:35 11° ENE 00:43:35 11° ENE 00:43:47 10° ENE visible
31 Jul -2.1 02:16:27 35° NW 02:17:21 44° N 02:20:37 10° ENE visible
31 Jul -2.8 03:51:03 10° WNW 03:54:25 63° NNE 03:57:46 10° E visible
01 Aug -1.8 01:29:41 35° NE 01:29:41 35° NE 01:31:58 10° ENE visible
01 Aug -2.4 03:02:35 11° WNW 03:05:46 51° NNE 03:09:05 10° E visible
01 Aug -3.1 04:39:16 10° WNW 04:42:33 51° SSW 04:45:50 10° SE visible
02 Aug -0.4 00:43:16 11° ENE 00:43:16 11° ENE 00:43:24 10° ENE visible
02 Aug -2.2 02:16:12 35° NW 02:17:09 45° N 02:20:25 10° E visible
02 Aug -3.4 03:50:41 10° WNW 03:54:03 76° SSW 03:57:25 10° ESE visible
02 Aug -2.3 22:12:05 10° SSW 22:14:58 27° SE 22:16:03 22° ESE visible
02 Aug -1.1 23:48:09 10° WSW 23:49:12 19° WSW 23:49:12 19° WSW visible
